logo
Rechercher aéroport 
image banner adimage banner adimage banner ad
image banner ad

KMRY - Monterey Rgnl

Situé à Monterey, United States

ICAO - MRY, IATA - MRY

Données fournies par Airmate  

Information générale

Coordonnées: N36°35'13" W121°50'34"
Élévation : 256 feet MSL.
Variation magnétique : 15° East
Voir autres Aéroports à California

Données opérationnelles

Special qualification required
Heure actuelle UTC:
Heure actuelle locale:
Météo
METAR: KMRY 261554Z 00000KT 5SM BR OVC003 14/13 A3001 RMK AO2 SLP173 T01440133
TAF: KMRY 261137Z 2612/2712 VRB03KT 4SM BR OVC003 TEMPO 2612/2615 2SM BR OVC002 FM261700 VRB03KT P6SM OVC006 FM261900 31005KT P6SM BKN010 FM262100 29008KT P6SM FEW013 FM270100 25006KT P6SM BKN011 FM270400 VRB03KT 6SM BR OVC008
Voir NOTAMs / SUP AIP / TFR affectant cet aéroport [VIEW]
Fréquences de communication: [VIEW]

Pistes:

Identifiant RWYQFULongueur (ft)Largeur (ft)SurfaceLDA (ft)
10R113°7175150ASPH7000
28L293°7175150ASPH7000
10L113°350360ASPH3504
28R293°350360ASPH3504

Coordonnées de l'aéroport

Adresse: Monterey United States

Autres services d'aviation

Écoles de pilotage

Aerodynamic Aviation - Monterey

Aerodynamic Aviation - Monterey

Vue satellite de KMRY